Regional Weather Roundup
Issued by NWS

Home | Current Version | Previous Version | Text Only | Print | Product List | Glossary Off
Versions: 1 2 3 4 5 6 7 8 9 10 11 12 13 14 15 16 17 18 19 20 21 22 23 24 25 26 27 28 29 30 31 32 33 34 35 36 37 38 39 40 41 42 43 44 45 46 47 48 49 50

000
ASUS43 KLSX 302359
RWRMO

WEATHER SUMMARY FOR MISSOURI
NATIONAL WEATHER SERVICE SPRINGFIELD MO
700 PM CDT WED JUL 30 2014

NOTE: "FAIR" INDICATES FEW OR NO CLOUDS BELOW 12,000 FEET WITH NO
       SIGNIFICANT WEATHER AND/OR OBSTRUCTIONS TO VISIBILITY.
       CURRENT SKY AND/OR WEATHER CONDITIONS ARE NOT AVAILABLE FOR
       CHILLICOTHE AND FARMINGTON.

MOZ001>031-035>038-043-044-053-054-310100-
...NORTHERN AND WESTERN MISSOURI...

CITY           SKY/WX    TMP DP  RH WIND       PRES   REMARKS
KANSAS CTY INT PTSUNNY   79  56  45 N5        30.08S
6HR MIN TEMP:  76; 6HR MAX TEMP:  81;

KANSAS C DTWN  PTSUNNY   78  56  46 NE7       30.06S
6HR MIN TEMP:  78; 6HR MAX TEMP:  82;

LEE`S SUMMIT   CLOUDY    77  56  48 NE5       30.08S
6HR MIN TEMP:  76; 6HR MAX TEMP:  80;

ST JOSEPH      MOSUNNY   79  57  46 NE6       30.07F
6HR MIN TEMP:  76; 6HR MAX TEMP:  81;

KIRKSVILLE     MOSUNNY   78  57  48 NE5       30.08S
6HR MIN TEMP:  77; 6HR MAX TEMP:  82;


$$
MOZ066>068-077>081-088>096-101>105-310100-
...SOUTHWEST MISSOURI...

CITY           SKY/WX    TMP DP  RH WIND       PRES   REMARKS
SPRINGFIELD    LGT RAIN  68  65  90 SW5       30.09S
6HR MIN TEMP:  68; 6HR MAX TEMP:  72; 6HR PCP:  0.02;

JOPLIN         LGT RAIN  67  66  97 VRB6      30.08F FOG
6HR MIN TEMP:  67; 6HR MAX TEMP:  68; 6HR PCP:  0.40;


$$
MOZ032>034-039>042-045>050-055>058-069>072-310100-
...CENTRAL MISSOURI...

CITY           SKY/WX    TMP DP  RH WIND       PRES   REMARKS
COLUMBIA       PTSUNNY   79  58  48 N5        30.06S
6HR MIN TEMP:  77; 6HR MAX TEMP:  83;

JEFFERSON CITY CLOUDY    77  60  55 SW8       30.04S
6HR MIN TEMP:  76; 6HR MAX TEMP:  83;

ROLLA          CLOUDY    74  57  55 SW5       30.06S
6HR MIN TEMP:  74; 6HR MAX TEMP:  78;

SEDALIA        CLOUDY    75  59  57 SW6       30.07S
6HR MIN TEMP:  75; 6HR MAX TEMP:  81;

OSAGE BEACH    CLOUDY    73  61  64 W3        30.07S

$$
MOZ051-052-059>065-310100-
...EAST CENTRAL MISSOURI...

CITY           SKY/WX    TMP DP  RH WIND       PRES   REMARKS
ST LOUIS INTL  PTSUNNY   82  55  39 NE6       30.04F
6HR MIN TEMP:  82; 6HR MAX TEMP:  86;

SPIRIT OF STL  PTSUNNY   81  55  40 N5        30.03S
6HR MIN TEMP:  80; 6HR MAX TEMP:  85;

ST CHARLES     MOSUNNY   80  59  48 NW3       30.03F
6HR MIN TEMP:  79; 6HR MAX TEMP:  83;


$$
MOZ072>076-082>087-097>100-106>115-310100-
...SOUTH CENTRAL AND SOUTHEAST MISSOURI...

CITY           SKY/WX    TMP DP  RH WIND       PRES   REMARKS
CAPE GIRARDEAU CLOUDY    74  64  71 S3        30.06F
6HR MIN TEMP:  74; 6HR MAX TEMP:  77;

FARMINGTON     CLOUDY    73  63  68 S6        30.09S
6HR MIN TEMP:  73; 6HR MAX TEMP:  75;

POPLAR BLUFF   CLOUDY    74  62  66 SW3       30.05F
6HR MIN TEMP:  74; 6HR MAX TEMP:  78;

WEST PLAINS    CLOUDY    68  64  87 W5        30.10F
6HR MIN TEMP:  68; 6HR MAX TEMP:  73; 6HR PCP: TRACE;


$$


USA.gov is the U.S. government's official web portal to all federal, state and local government web resources and services.